Regional Weather Roundup
Issued by NWS Charleston, SC

Current Version | Previous Version | Graphics & Text | Print | Product List | Glossary On
Versions: 1 2 3 4 5 6 7 8 9 10 11 12 13 14 15 16 17 18 19 20 21 22 23 24 25 26 27 28 29 30 31 32 33 34 35 36 37 38 39 40 41 42 43 44 45 46 47 48 49 50
000 ASUS42 KCHS 290427 RWRCHS REGIONAL WEATHER ROUNDUP NATIONAL WEATHER SERVICE CHARLESTON SC 1200 AM EDT SAT AUG 29 2015 NOTE: "FAIR" INDICATES FEW OR NO CLOUDS BELOW 12,000 FEET WITH NO SIGNIFICANT WEATHER AND/OR OBSTRUCTIONS TO VISIBILITY. NOT ALL STATIONS ARE QUALITY CONTROLLED BY THE NATIONAL WEATHER SERVICE. USE DATA WITH CAUTION...ESPECIALLY DEWPOINT OBSERVATIONS. SCZ027-030-031-034>040-042>050-290500- ...SOUTHEAST SOUTH CAROLINA... CITY SKY/WX TMP DP RH WIND PRES REMARKS N CHARLESTON MOCLDY 74 70 87 NE6 30.14F WATERFRONT PRK N/A 80 73 79 NE6 30.12R MOUNT PLEASANT FAIR 73 72 94 N3 30.15S JOHNS ISLAND FAIR 77 73 88 CALM 30.13F PINOPOLIS N/A 81 66 61 E9 30.08F MONCKS CORNER FAIR 75 66 73 CALM 30.15F SUMMERVILLE FAIR 72 72 100 CALM 30.16S BEAUFORT MCAS PTCLDY 76 73 91 N7 30.14S BEAUFORT ARPT FAIR 79 73 83 NE9 30.13S HILTON HEAD IS PTCLDY 81 73 78 N7 30.13F WALTERBORO PTCLDY 73 72 94 CALM 30.16S ALLENDALE FAIR 73 72 94 CALM 30.16S ...SOUTHERN MIDLANDS AND PEE DEE... CITY SKY/WX TMP DP RH WIND PRES REMARKS GEORGETOWN NOT AVBL KINGSTREE NOT AVBL ORANGEBURG PTCLDY 70 62 76 CALM 30.17S BARNWELL FAIR 72 68 88 CALM 30.18S AIKEN FAIR 72 59 64 E3 30.22R MANNING FAIR 64 63 94 CALM 30.17R COLUMBIA PTCLDY 74 61 63 CALM 30.17R SUMTER CLEAR 68 60 77 NE3 30.16R FLORENCE PTCLDY 69 64 84 CALM 30.17S MYRTLE BEACH PTCLDY 73 64 73 N6 30.18R N MYRTLE BEACH CLEAR 71 67 87 NE5 30.15S $$ GAZ063-065-086>088-099>101-113>116-118-119-134>141-150-290500- ...SOUTHEAST GEORGIA... CITY SKY/WX TMP DP RH WIND PRES REMARKS SAVANNAH ARPT MOCLDY 75 73 93 NE3 30.13S HUNTER AAF PTCLDY 78 76 96 N2 30.10S FORT STEWART PTCLDY 74 71 92 NE3 30.10S STATESBORO PTCLDY 73 73 100 NE3 30.15S SYLVANIA PTCLDY 75 74 96 E5 30.16F CLAXTON NOT AVBL ...CSRA...CENTRAL AND FAR SOUTHEAST GEORGIA... CITY SKY/WX TMP DP RH WIND PRES REMARKS THOMSON PTCLDY 72 72 99 CALM 30.21S AUGUSTA-BUSH MOCLDY 71 68 90 S3 30.16R AUGUSTA-DANIEL MOCLDY 77 65 66 SE5 30.18R SWAINSBORO CLOUDY 77 77 100 E3 30.16S VIDALIA PTCLDY 73 70 88 NE6 30.15R EASTMAN FAIR 75 75 100 E6 30.16R HAZLEHURST FAIR 76 76 99 E7 30.12S ALMA CLOUDY 74 73 97 CALM 30.11F FOG WAYCROSS CLOUDY 78 78 99 CALM 30.10F JESUP FAIR 77 73 88 NE3 30.11S BAXLEY FAIR 77 73 88 NE3 30.12R BRUNSWICK CLOUDY 73 73 100 CALM 30.10F SAINT SIMONS CLOUDY 82 73 74 E10 30.09F $$ SCZ027-028-034-036>038-045-046-048>050-GAZ119-141-290500- ...LAKE AND SUPPLEMENTAL COASTAL OBSERVATIONS... STATION/POSITION TIME TEMP WIND PRES WAVE SWELL AIR SEA DIR/SP/G HT/PER HT/PER/DIR (UTC) (F) (DEG/KT/KT) (MB) (FT/S) (FT/S/D) UPR LAKE MARION NOT AVBL WINYAH BAY 0345 80 60/ 9 1020.0S LAKE MURRAY 0400 77 110/ 7/ 11 1021.3R ACE BASIN NERRS NOT AVBL FORT PULASKI NOT AVBL SAPELO ISLAND 0400 80 80/ 6 1019.0F $$ ANZ835-935-AMZ111-154-330-350-352-354-370-450-454-472-290500- ...C-MAN AND BUOY OBSERVATIONS... STATION/POSITION TIME TEMP WIND PRES WAVE SWELL AIR SEA DIR/SP/G HT/PER HT/PER/DIR (UTC) (F) (DEG/KT/KT) (MB) (FT/S) (FT/S/D) BUOY 41004 0350 81 84 40/ 17/ 21 1019.3F 6/ 6 2/10 BUOY 41008 0350 83 85 100/ 12/ 16 1019.4F 3/ 5 2/ 30/11 FOLLY BEACH CMAN 0400 80 60/ 14/ 16 1020.6F CAPERS NEARSHORE 0308 81 70/ 14/ 17 1020.7R FRIPP NEARSHORE 0300 82 90/ 16/ 17 1019.9R STATION/POSITION TIME TEMP WIND PRES WAVE SWELL AIR SEA DIR/SP/G HT/PER HT/PER/DIR (UTC) (F) (DEG/KT/KT) (MB) (FT/S) (FT/S/D) 5E ST. MARYS GA 0321 86 N/A 3/ 5 2/110/12 FRYING PAN BUOY 0350 80 81 50/ 19/ 21 1020.5R 6/ 6 2/100/11 BUOY 41025 0350 80 82 50/ 17/ 21 1020.5F 5/11 3/100/11 CAPE LOOKOUT NC 0400 76 20/ 15/ 19 1020.7F BUOY 41002 0350 82 84 180/ 10/ 12 1019.9R 4/11 3/100/11 BUOY 41010 0320 83 85 150/ 6/ 8 1019.6R ST AUGUSTINE FL 0400 82 86 70/ 10/ 11 1019.6S $$

USA.gov is the U.S. government's official web portal to all federal, state and local government web resources and services.